Погода в Турткуле

Узбекистан     41°33′29″N   60°59′28″E
темп.,
°C
ветер,
м/с
пор.,
м/с
влажн.,
%
обл.,
%
осадки,
мм/ч
давл.,
гПа
погр.,
м
27 февраля, сб
сб2723:00−2ююз5819100 0.1 1029423
02:00−2ююз6112298 0.0 1027413
05:00−1ююз6112595 0.1 1025627
08:00−1ююз8143599 0.1 1024564
11:000юз81376100 0.2 1025454
14:00+2юз81169100 0.1 1025461
17:00+4юз696498 0.1 1024519
20:00+3ююз5863100 0.0 1025167
28 февраля, вс
вс2823:00+2ю466195 0.0 1024103
02:00+1ю454833 0.0 102380
05:000ю453719 0.0 102266
08:00+1ююв44344 0.0 102279
11:00+6ююв572335 0.0 1021338
14:00+10ююв562174 0.0 1019688
17:00+11ююв452262 0.0 1017787
20:00+7юв453560 0.0 101759
1 марта, пн
пн123:00+6ююв454130 0.0 101756
02:00+5ююв34420 0.0 101733
05:00+4ююв34430 0.0 101627
08:00+3ююв34440 0.0 101725
11:00+9ю23310 0.0 1017271
14:00+14зюз34240 0.0 1017796
17:00+15з45240 0.0 10161107
20:00+11з34320 0.0 101834
2 марта, вт
вт223:00+8сз34380 0.0 102028
02:00+5ссв46530 0.0 1021107
05:00+2ссв47840 0.0 1022190
08:00+1с588643 0.0 1024279
11:00+5ссв566767 0.0 1025442
14:00+8с445746 0.0 1025781
17:00+8ссв335671 0.0 1024988
20:00+7св3464100 0.0 1025594
3 марта, ср
ср323:00+5ссв3471100 0.0 1025240
02:00+3св237753 0.0 102460
05:00+3в237771 0.0 102465
08:00+3в347799 0.0 1023107
11:00+6вюв4460100 0.0 1023518
14:00+9юв335083 0.0 10201042
17:00+10юв224757 0.0 10181221
20:00+8в465382 0.0 1017225